Regional Weather Roundup
Issued by NWS

Home | Current Version | Previous Version | Text Only | Print | Product List | Glossary On
Versions: 1 2 3 4 5 6 7 8 9 10 11 12 13 14 15 16 17 18 19 20 21 22 23 24 25 26 27 28 29 30 31 32 33 34 35 36 37 38 39 40 41 42 43 44 45 46 47 48 49 50
000
ASUS44 KFWD 250910
RWRTX
NORTH TEXAS HOURLY WEATHER ROUNDUP
NATIONAL WEATHER SERVICE FORT WORTH TX
400 AM CDT SAT MAR 25 2017

NOTE: "FAIR" INDICATES FEW OR NO CLOUDS BELOW 12,000 FEET WITH NO
SIGNIFICANT WEATHER AND/OR OBSTRUCTIONS TO VISIBILITY.

TXZ118-119-251000-
DALLAS/FORT WORTH METROPLEX

CITY           SKY/WX    TMP DP  RH WIND       PRES   REMARKS
DFW AIRPORT    CLEAR     59  46  62 W18G28    29.89S
DALLAS LOVE    PTCLDY    59  45  59 NW18G28   29.90R
FTW MEACHAM    CLEAR     58  43  57 NW17G28   29.92F
DAL-EXECUTIVE  CLEAR     58  46  64 NW22G30   29.90R
FTW-ALLIANCE   CLEAR     56  45  66 W17G25    29.91F
FTW-NAS-JRB    CLEAR     59  45  59 NW20G26   29.94S
FTW-SPINKS     CLEAR     58  44  61 NW16      29.95S
ARLINGTON      CLEAR     59  44  57 W16G23    29.92R
GRAND PRAIRIE  CLEAR     59  43  56 W14G24    29.93S
ADDISON        CLEAR     57  45  65 W14G21    29.92S
MESQUITE       CLEAR     59  45  60 W15G22    29.90S
LANCASTER      CLEAR     58  45  61 NW17G25   29.92R
$$

TXZ091>094-102>105-117-120-121-131>134-251000-
NORTH CENTRAL TEXAS

CITY           SKY/WX    TMP DP  RH WIND       PRES   REMARKS
SHRMAN/DENISON PTCLDY    55  47  73 W18G26    29.88R
GAINESVILLE    CLOUDY    55  44  66 W17G29    29.91S
BOWIE          CLOUDY    54  45  70 W17G25    29.93S
BRIDGEPORT     CLEAR     55  43  65 NW9G20    29.96F
DECATUR        CLEAR     54  43  68 W12G22    29.92S
DENTON         CLEAR     54  46  74 W13       29.90S
MCKINNEY       CLEAR     57  47  69 W18G28    29.89R
BONHAM         CLEAR     55  46  71 W10G16    29.84R
GREENVILLE     CLEAR     59  45  58 W14G21    29.88R
ROCKWALL       CLEAR     59  46  63 W17G24    29.89R
TERRELL        CLEAR     59  46  62 W17G24    29.89R
WAXAHACHIE     PTCLDY    58  46  66 W10G18    29.93R
CLEBURNE       CLEAR     55  45  67 NW13      29.96S
GRANBURY       CLEAR     57  44  60 W9G17     29.98R
$$

TXZ083>090-098>101-113>116-127>130-139>142-154-155-251000-
WESTERN NORTH TEXAS

CITY           SKY/WX    TMP DP  RH WIND       PRES   REMARKS
WICHITA FALLS  CLEAR     51  42  71 NW16      29.95F
WF-KICKAPOO    CLEAR     53  42  66 NW14G22   29.96F
VERNON         CLOUDY    51  37  58 NW8       30.00R
ABILENE        CLEAR     49  38  65 NW10      30.05R
ABILENE-DYESS  CLEAR     49  38  65 W5        30.04R
GRAHAM         CLEAR     53  44  71 NW10      29.97S
BRECKENRIDGE   CLEAR     54  40  60 NW9       30.00S
CISCO          CLEAR     52  39  62 NW10G17   30.01S
RANGER         CLEAR     52  41  66 NW7       30.00S
MINERAL WELLS  CLEAR     54  42  64 NW16G24   29.95S
STEPHENVILLE   CLEAR     55  41  60 W8        30.01R
COMANCHE       CLEAR     53  41  64 W8        30.02S
BROWNWOOD      CLEAR     54  39  58 NW8       30.03S
COLEMAN        CLEAR     53  38  57 NW5       30.04F
$$

TXZ143>147-156>162-174-175-251000-
CENTRAL TEXAS

CITY           SKY/WX    TMP DP  RH WIND       PRES   REMARKS
WACO           PTCLDY    59  43  55 NW14      29.96R
WACO-MCGREGOR  PTCLDY    58  43  57 W7        29.97R
HILLSBORO      PTCLDY    58  46  63 W13       29.94S
CORSICANA      PTCLDY    57  46  66 W6        29.94R
MEXIA          PTCLDY    58  44  59 W8        29.93S
HEARNE         CLEAR     64  57  80 W7        29.98R
CAMERON        CLEAR     62  44  51 NW5       29.97R
TEMPLE         CLEAR     59  43  55 NW13      29.97R
KILLEEN        CLEAR     59  40  48 NW15G23   29.97S
KILLEEN-SKYLRK CLEAR     60  41  49 NW7       29.98R
FORT HOOD      CLEAR     59  41  50 NW14      29.95R
GATESVILLE     PTCLDY    59  41  51 NW8G20    30.00S
HAMILTON       PTCLDY    56  42  59 NW14      30.00S
LAMPASAS       CLEAR     58  43  56 NW8       29.98S
$$

TXZ095>097-106>112-122>126-135>138-148>153-164>167-251000-
EAST TEXAS

CITY           SKY/WX    TMP DP  RH WIND       PRES   REMARKS
PARIS          CLEAR     55  45  67 SW10      29.83S
SULPHUR SPRNGS CLEAR     59  47  63 W9        29.88S
MOUNT PLEASANT CLEAR     60  47  62 W7        29.87S
GILMER         CLEAR     62  49  63 W6        29.88R THUNDER
MINEOLA        CLEAR     59  48  67 SW5       29.89R
TYLER          CLEAR     61  51  70 W7        29.89R
LONGVIEW       CLEAR     64  63  96 SW9       29.87S
MARSHALL         N/A    N/A N/A N/A MISG        N/A
ATHENS         CLEAR     59  45  58 W3        29.91R
PALESTINE      CLEAR     62  54  76 W9        29.94R
JACKSONVILLE   PTCLDY    65  61  86 W8        29.92S
HENDERSON      PTCLDY    64  64 100 SW3       29.89F
CENTER         CLOUDY    66  65  94 S9        29.91R
NACOGDOCHES    CLOUDY    64  61  88 SW6       29.90R
LUFKIN         CLOUDY    62  61  96 CALM      29.92R
$$

SUPPLEMENTAL OBSERVATIONS (CENTRAL)

CITY           SKY/WX    TMP DP  RH WIND       PRES   REMARKS
CADDO GRASSLND   N/A     57  45  62 W6G14       N/A
PAT MAYSE LAKE   N/A     59  50  72 S15         N/A
MCGREGOR         N/A     57  39  51 NW7         N/A
TEMPLE           N/A     61  41  48 NW5         N/A
$$

SUPPLEMENTAL OBSERVATIONS (WEST)

CITY           SKY/WX    TMP DP  RH WIND       PRES   REMARKS
MILLERS CREEK    N/A     48  36  61 NW9         N/A
POSSUM KINGDOM   N/A     54  41  62 NW13G23     N/A
LBJ GRASSLAND    N/A     54  43  66 W10G20      N/A
GRANBURY         N/A     55  41  58 NW8G18      N/A
HAMBY            N/A     45  37  76 NW6         N/A
$$

SUPPLEMENTAL OBSERVATIONS (EAST)

CITY           SKY/WX    TMP DP  RH WIND       PRES   REMARKS
TEXARKANA        N/A    N/A N/A N/A S1G10       N/A
LINDEN           N/A     63  59  88 SW1         N/A
LUFKIN           N/A     63  59  88 MISG        N/A
N SABINE NF      N/A     61  59  94 MISG        N/A
$$

SUPPLEMENTAL OBSERVATIONS ARE A COLLECTION OF AUTOMATED INSTRUMENTS
THAT ARE MAINTAINED BY A VARIETY OF FEDERAL AND STATE AGENCIES.
CERTAIN ELEMENTS...SUCH AS HUMIDITY VALUES AND SUSTAINED WIND
SPEEDS...MAY BE APPROXIMATED.




USA.gov is the U.S. government's official web portal to all federal, state and local government web resources and services.